Weather Roundup
Issued by NWS Chicago, IL

Home | Current Version | Previous Version | Text Only | Print | Product List | Glossary On
Versions: 1 2 3 4 5 6 7 8 9 10 11 12 13 14 15 16 17 18 19 20 21 22 23 24 25 26 27 28 29 30 31 32 33 34 35 36 37 38 39 40 41 42 43 44 45 46 47 48 49 50
000
NZUS59 KLOT 081808
HRRLOT

CHICAGO AREA WEATHER ROUNDUP
NATIONAL WEATHER SERVICE CHICAGO/ROMEOVILLE IL
1200 PM CST MON FEB 08 2016

NOTE: "FAIR" INDICATES FEW OR NO CLOUDS BELOW 12,000 FEET WITH NO
SIGNIFICANT WEATHER AND/OR OBSTRUCTIONS TO VISIBILITY.

* THESE STATIONS ARE NOT UNDER NWS QUALITY CONTROL. THEY ALSO MAY NOT
  REPORT WEATHER SUCH AS PRECIPITATION OR FOG.

ILZ005-006-012>014-019>023-081900-
NORTHEAST ILLINOIS

CITY           SKY/WX    TMP DP  RH WIND       PRES   REMARKS
OHARE          FLURRIES  28  22  78 NW12      29.66S WCI  18
6HR MIN TEMP:  28; 6HR MAX TEMP:  32; 6HR PCP: TRACE;

MIDWAY         CLOUDY    31  20  63 W14       29.67S WCI  21
6HR MIN TEMP:  31; 6HR MAX TEMP:  33; 6HR PCP: TRACE;

AURORA         CLOUDY    27  20  75 NW16      29.70R WCI  15
6HR MIN TEMP:  27; 6HR MAX TEMP:  31;

LANSING*       CLOUDY    30  24  79 W15       29.68S WCI  19
WAUKEGAN       CLOUDY    29  24  82 NW12      29.64S WCI  19
6HR MIN TEMP:  28; 6HR MAX TEMP:  33;

DUPAGE AIRPORT CLOUDY    26  20  77 NW12      29.67F WCI  16
6HR MIN TEMP:  26; 6HR MAX TEMP:  31; 6HR PCP: TRACE;

WHEELING       CLOUDY    28  23  81 W10       29.68R WCI  19
6HR MIN TEMP:  28; 6HR MAX TEMP:  32; 6HR PCP: TRACE;

KANKAKEE*      CLOUDY    27  20  75 W12G18    29.71S WCI  17
MORRIS*        CLOUDY    26  20  76 W15G21    29.69S WCI  14
LEWIS AIRPORT* CLOUDY    27  22  79 W14       29.70R WCI  16
$$

WIZ051-052-058>065-066-070>072-081900-
SOUTHEAST WISCONSIN

CITY           SKY/WX    TMP DP  RH WIND       PRES   REMARKS
MILWAUKEE      LGT SNOW  27  22  81 NW14      29.65S WCI  16
6HR MIN TEMP:  27; 6HR MAX TEMP:  34; 6HR PCP:  0.14;

KENOSHA*       CLOUDY    29  23  78 NW12      29.65S WCI  19
RACINE*        LGT SNOW  28  21  75 NW15      29.66S WCI  16
BURLINGTON     CLOUDY    24  19  78 NW13      29.67S WCI  13
WAUKESHA       CLOUDY    23  18  80 W14       29.66S WCI  11
$$

INZ001>003-010>013-019-020-081900-
NORTHWEST INDIANA

CITY           SKY/WX    TMP DP  RH WIND       PRES   REMARKS
GARY*          CLOUDY    32  21  64 W18       29.67S WCI  20
MICHIGAN CITY* NOT AVBL
RENSSELAER*    NOT AVBL
VALPARAISO     CLOUDY    31  24  75 W13       29.65F WCI  21
$$

LMZ740>746-081900-
SOUTHERN LAKE MICHIGAN

STATION/POSITION TIME  SKY/WX   TEMP WIND        PRES    VSBY
                                AIR  DIR/SP/G
                 (UTC)          (F)  (DEG/KT/KT) (MB)    (MI)
HARRISON CRIB    1700            31  280/ 14/ 15   N/A
BURNHAM HARBOR   1800            30  270/ 11/ 15   N/A
CALUMET HARBOR   1700            31  270/  7/ 12 1004.1R
BURNS HARBOR     1700            31  290/ 14/ 17 1005.1S
MICHIGAN CITY    1700            31  240/ 16/ 17   N/A
$$

ABBREVIATIONS USED IN REMARKS
   TC - TEMPERATURE IN CELSIUS
  WCI - WIND CHILL INDEX
   HX - HEAT INDEX
  VSB - VISIBILITY
$$



USA.gov is the U.S. government's official web portal to all federal, state and local government web resources and services.